Location: Advent Pentecost Church
(32.7757°N, 96.7408°W)
Time: 07:11:14
(UTC+00:00)

N. Korean satellite - Pass Details

Date: 30 October 2021
Orbit: 447 x 495 km, 97.3° (Epoch: 30 November)

Event Time Altitude Azimuth Distance (km) Brightness Sun altitude
Rises 12:09:18 0° 358° (N) 2,569 10.1 -7.8°
Reaches altitude 10° 12:11:33 10° 347° (NNW) 1,676 9.1 -7.3°
Maximum altitude 12:14:42 29° 287° (WNW) 911 7.4 -6.7°
Drops below altitude 10° 12:17:48 10° 225° (SW) 1,642 8.9 -6.0°
Sets 12:19:59 0° 214° (SW) 2,506 10.0 -5.6°
